This is the latest recevied weather packets stored in our database for station/object BV3BA-13. If no packets are shown the sender has not sent any weather packets the latest 10 day(s).
| Time | Temp. | Humidity | Pressure | Rain* | Wind** | Luminosity | Snow |
|---|---|---|---|---|---|---|---|
| 1777880824 | 23.33° C | 64% | 1010.6 hPa | 0 mm | - | - | - |
| 1777880223 | 23.33° C | 63% | 1010.6 hPa | 0 mm | - | - | - |
| 1777879623 | 23.33° C | 62% | 1010.7 hPa | 0 mm | - | - | - |
| 1777879023 | 23.89° C | 60% | 1010.9 hPa | 0 mm | - | - | - |
| 1777878424 | 23.89° C | 59% | 1010.7 hPa | 0 mm | - | - | - |
| 1777877823 | 23.89° C | 60% | 1010.8 hPa | 0 mm | - | - | - |
| 1777877224 | 23.89° C | 59% | 1010.9 hPa | 0 mm | - | - | - |
| 1777876624 | 24.44° C | 58% | 1010.9 hPa | 0 mm | - | - | - |
| 1777876024 | 24.44° C | 54% | 1010.8 hPa | 0 mm | - | - | - |
| 1777875424 | 24.44° C | 56% | 1011.1 hPa | 0 mm | - | - | - |
| 1777874824 | 23.89° C | 56% | 1011.2 hPa | 0 mm | - | - | - |
| 1777874223 | 24.44° C | 54% | 1011.4 hPa | 0 mm | - | - | - |
| 1777873624 | 24.44° C | 54% | 1011.4 hPa | 0 mm | - | - | - |
| 1777873024 | 25° C | 56% | 1011.4 hPa | 0 mm | - | - | - |
| 1777872424 | 25° C | 53% | 1011.6 hPa | 0 mm | - | - | - |
| 1777871825 | 25° C | 53% | 1011.5 hPa | 0 mm | - | - | - |
| 1777871224 | 25.56° C | 50% | 1011.7 hPa | 0 mm | - | - | - |
| 1777870624 | 25° C | 49% | 1012 hPa | 0 mm | - | - | - |
| 1777870024 | 25.56° C | 51% | 1011.8 hPa | 0 mm | - | - | - |
| 1777869424 | 25° C | 53% | 1012 hPa | 0 mm | - | - | - |
| 1777868824 | 25° C | 52% | 1012.1 hPa | 0 mm | - | - | - |
| 1777868223 | 25° C | 56% | 1012.4 hPa | 0 mm | - | - | - |
| 1777867623 | 24.44° C | 53% | 1012.3 hPa | 0 mm | - | - | - |
| 1777867023 | 24.44° C | 54% | 1012.7 hPa | 0 mm | - | - | - |
| 1777866424 | 24.44° C | 55% | 1013 hPa | 0 mm | - | - | - |
* Rain latest hour (hover to see other rain measurements)
** Current wind speed in m/s (hover to see current wind gust speed)